Time,TemperatureF,DewpointF,PressureIn,WindDirection,WindDirectionDegrees,WindSpeedMPH,WindSpeedGustMPH,Humidity,HourlyPrecipIn,Conditions,Clouds,dailyrainin,SoftwareType,DateUTC
2013-04-12 00:03:00,77.0,-99.9,29.85,South,177,17.0,21.0,-999,-99.99,,,-99.99,,2013-04-12 04:03:00,
2013-04-12 00:13:00,77.0,-99.9,29.85,South,178,18.0,22.0,-999,-99.99,,,-99.99,,2013-04-12 04:13:00,
2013-04-12 00:23:00,77.0,-99.9,29.85,South,177,19.0,26.0,-999,-99.99,,,-99.99,,2013-04-12 04:23:00,
2013-04-12 00:33:00,77.0,-99.9,29.86,South,173,20.0,26.0,-999,-99.99,,,-99.99,,2013-04-12 04:33:00,
2013-04-12 00:43:00,77.0,-99.9,29.86,South,176,18.0,23.0,-999,-99.99,,,-99.99,,2013-04-12 04:43:00,
2013-04-12 00:53:00,77.0,-99.9,29.86,South,173,17.0,29.0,-999,-99.99,,,-99.99,,2013-04-12 04:53:00,
2013-04-12 01:03:00,77.0,-99.9,29.86,South,173,22.0,29.0,-999,-99.99,,,-99.99,,2013-04-12 05:03:00,
2013-04-12 01:12:00,76.0,-99.9,29.87,South,176,20.0,27.0,-999,-99.99,,,-99.99,,2013-04-12 05:12:00,
2013-04-12 01:23:00,76.0,-99.9,29.86,South,175,22.0,28.0,-999,-99.99,,,-99.99,,2013-04-12 05:23:00,
2013-04-12 01:32:00,76.0,-99.9,29.86,South,181,18.0,23.0,-999,-99.99,,,-99.99,,2013-04-12 05:32:00,
2013-04-12 01:42:00,76.0,-99.9,29.87,South,178,17.0,27.0,-999,-99.99,,,-99.99,,2013-04-12 05:42:00,
2013-04-12 01:52:00,76.0,-99.9,29.86,South,176,18.0,24.0,-999,-99.99,,,-99.99,,2013-04-12 05:52:00,
2013-04-12 02:02:00,77.0,-99.9,29.88,South,174,18.0,23.0,-999,-99.99,,,-99.99,,2013-04-12 06:02:00,
2013-04-12 02:12:00,77.0,-99.9,29.88,South,175,18.0,23.0,-999,-99.99,,,-99.99,,2013-04-12 06:12:00,
2013-04-12 02:22:00,77.0,-99.9,29.88,South,178,18.0,24.0,-999,-99.99,,,-99.99,,2013-04-12 06:22:00,
2013-04-12 02:32:00,77.0,-99.9,29.88,South,178,17.0,21.0,-999,-99.99,,,-99.99,,2013-04-12 06:32:00,
2013-04-12 02:42:00,77.0,-99.9,29.87,South,177,19.0,24.0,-999,-99.99,,,-99.99,,2013-04-12 06:42:00,
2013-04-12 02:52:00,77.0,-99.9,29.87,South,173,18.0,25.0,-999,-99.99,,,-99.99,,2013-04-12 06:52:00,
2013-04-12 03:02:00,76.0,-99.9,29.87,South,176,18.0,24.0,-999,-99.99,,,-99.99,,2013-04-12 07:02:00,
2013-04-12 03:12:00,76.0,-99.9,29.86,South,175,18.0,25.0,-999,-99.99,,,-99.99,,2013-04-12 07:12:00,
2013-04-12 03:22:00,77.0,-99.9,29.86,South,175,17.0,22.0,-999,-99.99,,,-99.99,,2013-04-12 07:22:00,
2013-04-12 03:32:00,77.0,-99.9,29.86,South,177,20.0,25.0,-999,-99.99,,,-99.99,,2013-04-12 07:32:00,
2013-04-12 03:42:00,77.0,-99.9,29.86,South,181,19.0,24.0,-999,-99.99,,,-99.99,,2013-04-12 07:42:00,
2013-04-12 03:52:00,77.0,-99.9,29.86,South,176,16.0,23.0,-999,-99.99,,,-99.99,,2013-04-12 07:52:00,
2013-04-12 04:03:00,77.0,-99.9,29.86,South,174,17.0,24.0,-999,-99.99,,,-99.99,,2013-04-12 08:03:00,
2013-04-12 04:12:00,77.0,-99.9,29.86,South,174,17.0,24.0,-999,-99.99,,,-99.99,,2013-04-12 08:12:00,
2013-04-12 04:22:00,77.0,-99.9,29.86,South,175,15.0,19.0,-999,-99.99,,,-99.99,,2013-04-12 08:22:00,
2013-04-12 04:32:00,77.0,-99.9,29.86,South,177,17.0,22.0,-999,-99.99,,,-99.99,,2013-04-12 08:32:00,
2013-04-12 04:43:00,77.0,-99.9,29.86,South,177,18.0,21.0,-999,-99.99,,,-99.99,,2013-04-12 08:43:00,
2013-04-12 04:53:00,77.0,-99.9,29.86,South,174,18.0,24.0,-999,-99.99,,,-99.99,,2013-04-12 08:53:00,
2013-04-12 05:02:00,76.0,-99.9,29.86,South,173,15.0,23.0,-999,-99.99,,,-99.99,,2013-04-12 09:02:00,
2013-04-12 05:12:00,76.0,-99.9,29.86,South,173,15.0,24.0,-999,-99.99,,,-99.99,,2013-04-12 09:12:00,
2013-04-12 05:22:00,76.0,-99.9,29.86,South,175,16.0,24.0,-999,-99.99,,,-99.99,,2013-04-12 09:22:00,
2013-04-12 05:33:00,76.0,-99.9,29.86,South,173,18.0,24.0,-999,-99.99,,,-99.99,,2013-04-12 09:33:00,
2013-04-12 05:44:00,76.0,-99.9,29.86,South,174,19.0,22.0,-999,-99.99,,,-99.99,,2013-04-12 09:44:00,
2013-04-12 05:53:00,76.0,-99.9,29.86,South,176,17.0,22.0,-999,-99.99,,,-99.99,,2013-04-12 09:53:00,
2013-04-12 06:03:00,76.0,-99.9,29.85,South,170,15.0,19.0,-999,-99.99,,,-99.99,,2013-04-12 10:03:00,
2013-04-12 06:13:00,76.0,-99.9,29.85,South,170,16.0,20.0,-999,-99.99,,,-99.99,,2013-04-12 10:13:00,
2013-04-12 06:23:00,76.0,-99.9,29.84,SSE,168,12.0,19.0,-999,-99.99,,,-99.99,,2013-04-12 10:23:00,
2013-04-12 06:34:00,76.0,-99.9,29.84,SSE,167,13.0,20.0,-999,-99.99,,,-99.99,,2013-04-12 10:34:00,
2013-04-12 06:43:00,76.0,-99.9,29.84,SSE,165,12.0,18.0,-999,-99.99,,,-99.99,,2013-04-12 10:43:00,
2013-04-12 06:53:00,76.0,-99.9,29.85,SSE,164,11.0,17.0,-999,-99.99,,,-99.99,,2013-04-12 10:53:00,
2013-04-12 07:03:00,76.0,-99.9,29.85,South,169,13.0,17.0,-999,-99.99,,,-99.99,,2013-04-12 11:03:00,
2013-04-12 07:13:00,76.0,-99.9,29.85,SSE,163,10.0,17.0,-999,-99.99,,,-99.99,,2013-04-12 11:13:00,
2013-04-12 07:22:00,76.0,-99.9,29.86,South,170,14.0,21.0,-999,-99.99,,,-99.99,,2013-04-12 11:22:00,
2013-04-12 07:33:00,76.0,-99.9,29.86,South,176,14.0,19.0,-999,-99.99,,,-99.99,,2013-04-12 11:33:00,
2013-04-12 07:43:00,77.0,-99.9,29.87,South,176,15.0,20.0,-999,-99.99,,,-99.99,,2013-04-12 11:43:00,
2013-04-12 07:53:00,76.0,-99.9,29.88,South,175,14.0,20.0,-999,-99.99,,,-99.99,,2013-04-12 11:53:00,
2013-04-12 08:03:00,76.0,-99.9,29.88,South,175,15.0,19.0,-999,-99.99,,,-99.99,,2013-04-12 12:03:00,
2013-04-12 08:13:00,76.0,-99.9,29.88,South,177,13.0,18.0,-999,-99.99,,,-99.99,,2013-04-12 12:13:00,
2013-04-12 08:22:00,76.0,-99.9,29.88,South,179,14.0,20.0,-999,-99.99,,,-99.99,,2013-04-12 12:22:00,
2013-04-12 08:33:00,76.0,-99.9,29.88,South,179,15.0,20.0,-999,-99.99,,,-99.99,,2013-04-12 12:33:00,
2013-04-12 08:43:00,76.0,-99.9,29.88,South,174,16.0,21.0,-999,-99.99,,,-99.99,,2013-04-12 12:43:00,
2013-04-12 08:54:00,76.0,-99.9,29.88,South,175,15.0,20.0,-999,-99.99,,,-99.99,,2013-04-12 12:54:00,
2013-04-12 09:03:00,76.0,-99.9,29.88,South,182,17.0,21.0,-999,-99.99,,,-99.99,,2013-04-12 13:03:00,
2013-04-12 09:13:00,76.0,-99.9,29.88,South,176,16.0,20.0,-999,-99.99,,,-99.99,,2013-04-12 13:13:00,
2013-04-12 09:22:00,76.0,-99.9,29.88,South,176,16.0,23.0,-999,-99.99,,,-99.99,,2013-04-12 13:22:00,
2013-04-12 09:32:00,76.0,-99.9,29.88,South,177,16.0,19.0,-999,-99.99,,,-99.99,,2013-04-12 13:32:00,
2013-04-12 09:43:00,76.0,-99.9,29.88,South,183,16.0,20.0,-999,-99.99,,,-99.99,,2013-04-12 13:43:00,
2013-04-12 09:53:00,76.0,-99.9,29.88,South,178,16.0,21.0,-999,-99.99,,,-99.99,,2013-04-12 13:53:00,
2013-04-12 10:04:00,76.0,-99.9,29.88,South,181,15.0,22.0,-999,-99.99,,,-99.99,,2013-04-12 14:04:00,
2013-04-12 10:13:00,76.0,-99.9,29.89,South,180,16.0,22.0,-999,-99.99,,,-99.99,,2013-04-12 14:13:00,
2013-04-12 10:23:00,76.0,-99.9,29.88,South,175,18.0,22.0,-999,-99.99,,,-99.99,,2013-04-12 14:23:00,
2013-04-12 10:33:00,76.0,-99.9,29.88,South,178,17.0,23.0,-999,-99.99,,,-99.99,,2013-04-12 14:33:00,
2013-04-12 10:43:00,75.0,-99.9,29.89,South,178,17.0,20.0,-999,-99.99,,,-99.99,,2013-04-12 14:43:00,
2013-04-12 10:54:00,75.0,-99.9,29.89,South,176,17.0,22.0,-999,-99.99,,,-99.99,,2013-04-12 14:54:00,
2013-04-12 11:03:00,75.0,-99.9,29.90,South,185,16.0,20.0,-999,-99.99,,,-99.99,,2013-04-12 15:03:00,
2013-04-12 11:12:00,75.0,-99.9,29.90,South,180,17.0,20.0,-999,-99.99,,,-99.99,,2013-04-12 15:12:00,
2013-04-12 11:22:00,75.0,-99.9,29.91,South,182,18.0,21.0,-999,-99.99,,,-99.99,,2013-04-12 15:22:00,
2013-04-12 11:33:00,75.0,-99.9,29.91,South,179,17.0,21.0,-999,-99.99,,,-99.99,,2013-04-12 15:33:00,
2013-04-12 11:43:00,76.0,-99.9,29.91,South,182,20.0,22.0,-999,-99.99,,,-99.99,,2013-04-12 15:43:00,
2013-04-12 11:53:00,76.0,-99.9,29.92,South,185,18.0,23.0,-999,-99.99,,,-99.99,,2013-04-12 15:53:00,
2013-04-12 12:04:00,76.0,-99.9,29.90,South,178,17.0,19.0,-999,-99.99,,,-99.99,,2013-04-12 16:04:00,
2013-04-12 12:14:00,76.0,-99.9,29.90,South,182,18.0,23.0,-999,-99.99,,,-99.99,,2013-04-12 16:14:00,
2013-04-12 12:23:00,76.0,-99.9,29.89,South,179,23.0,30.0,-999,-99.99,,,-99.99,,2013-04-12 16:23:00,
2013-04-12 12:34:00,76.0,-99.9,29.88,South,190,23.0,27.0,-999,-99.99,,,-99.99,,2013-04-12 16:34:00,
2013-04-12 12:43:00,76.0,-99.9,29.89,SSW,196,24.0,29.0,-999,-99.99,,,-99.99,,2013-04-12 16:43:00,
2013-04-12 12:53:00,76.0,-99.9,29.89,SSW,193,24.0,29.0,-999,-99.99,,,-99.99,,2013-04-12 16:53:00,
2013-04-12 13:04:00,76.0,-99.9,29.89,SSW,196,27.0,31.0,-999,-99.99,,,-99.99,,2013-04-12 17:04:00,
2013-04-12 13:12:00,76.0,-99.9,29.90,SSW,196,26.0,32.0,-999,-99.99,,,-99.99,,2013-04-12 17:12:00,
2013-04-12 13:23:00,76.0,-99.9,29.89,SSW,195,30.0,35.0,-999,-99.99,,,-99.99,,2013-04-12 17:23:00,
2013-04-12 13:34:00,76.0,-99.9,29.88,SSW,192,30.0,34.0,-999,-99.99,,,-99.99,,2013-04-12 17:34:00,
2013-04-12 13:47:00,76.0,-99.9,29.88,SSW,197,28.0,33.0,-999,-99.99,,,-99.99,,2013-04-12 17:47:00,
2013-04-12 14:08:00,76.0,-99.9,29.88,SSW,199,29.0,34.0,-999,-99.99,,,-99.99,,2013-04-12 18:08:00,
2013-04-12 14:25:00,75.0,-99.9,29.90,SSW,196,26.0,31.0,-999,-99.99,,,-99.99,,2013-04-12 18:25:00,
2013-04-12 15:27:00,73.0,-99.9,29.88,SSW,206,28.0,30.0,-999,-99.99,,,-99.99,,2013-04-12 19:27:00,
2013-04-12 15:33:00,74.0,-99.9,29.84,SSW,196,34.0,38.0,-999,-99.99,,,-99.99,,2013-04-12 19:33:00,
2013-04-12 15:43:00,74.0,-99.9,29.83,SSW,203,32.0,39.0,-999,-99.99,,,-99.99,,2013-04-12 19:43:00,
2013-04-12 15:53:00,74.0,-99.9,29.81,SSW,207,34.0,39.0,-999,-99.99,,,-99.99,,2013-04-12 19:53:00,
2013-04-12 16:02:00,75.0,-99.9,29.80,SSW,210,33.0,39.0,-999,-99.99,,,-99.99,,2013-04-12 20:02:00,
2013-04-12 16:13:00,75.0,-99.9,29.81,SSW,203,33.0,39.0,-999,-99.99,,,-99.99,,2013-04-12 20:13:00,
2013-04-12 16:22:00,75.0,-99.9,29.80,SSW,202,31.0,40.0,-999,-99.99,,,-99.99,,2013-04-12 20:22:00,
2013-04-12 16:33:00,75.0,-99.9,29.81,SSW,204,28.0,33.0,-999,-99.99,,,-99.99,,2013-04-12 20:33:00,
2013-04-12 16:43:00,76.0,-99.9,29.80,SSW,201,30.0,40.0,-999,-99.99,,,-99.99,,2013-04-12 20:43:00,
2013-04-12 16:52:00,76.0,-99.9,29.77,SSW,198,34.0,43.0,-999,-99.99,,,-99.99,,2013-04-12 20:52:00,
2013-04-12 17:03:00,76.0,-99.9,29.76,SSW,209,32.0,38.0,-999,-99.99,,,-99.99,,2013-04-12 21:03:00,
2013-04-12 17:12:00,76.0,-99.9,29.78,SSW,209,33.0,40.0,-999,-99.99,,,-99.99,,2013-04-12 21:12:00,
2013-04-12 17:22:00,76.0,-99.9,29.77,SSW,209,33.0,42.0,-999,-99.99,,,-99.99,,2013-04-12 21:22:00,
2013-04-12 17:33:00,76.0,-99.9,29.79,SSW,198,32.0,37.0,-999,-99.99,,,-99.99,,2013-04-12 21:33:00,
2013-04-12 17:43:00,76.0,-99.9,29.78,SSW,195,29.0,36.0,-999,-99.99,,,-99.99,,2013-04-12 21:43:00,
2013-04-12 17:53:00,76.0,-99.9,29.77,SSW,201,28.0,33.0,-999,-99.99,,,-99.99,,2013-04-12 21:53:00,
2013-04-12 18:03:00,76.0,-99.9,29.79,SSW,196,27.0,36.0,-999,-99.99,,,-99.99,,2013-04-12 22:03:00,
2013-04-12 18:13:00,76.0,-99.9,29.78,SSW,198,26.0,33.0,-999,-99.99,,,-99.99,,2013-04-12 22:13:00,
2013-04-12 18:23:00,76.0,-99.9,29.78,SSW,199,28.0,34.0,-999,-99.99,,,-99.99,,2013-04-12 22:23:00,
2013-04-12 18:33:00,76.0,-99.9,29.78,SSW,198,26.0,32.0,-999,-99.99,,,-99.99,,2013-04-12 22:33:00,
2013-04-12 18:43:00,76.0,-99.9,29.79,SSW,203,25.0,31.0,-999,-99.99,,,-99.99,,2013-04-12 22:43:00,
2013-04-12 18:53:00,77.0,-99.9,29.79,South,184,26.0,34.0,-999,-99.99,,,-99.99,,2013-04-12 22:53:00,
2013-04-12 19:04:00,76.0,-99.9,29.80,SW,220,18.0,24.0,-999,-99.99,,,-99.99,,2013-04-12 23:04:00,
2013-04-12 19:12:00,75.0,-99.9,29.82,West,271,13.0,28.0,-999,-99.99,,,-99.99,,2013-04-12 23:12:00,
2013-04-12 19:22:00,74.0,-99.9,29.83,West,275,9.0,24.0,-999,-99.99,,,-99.99,,2013-04-12 23:22:00,
2013-04-12 19:32:00,75.0,-99.9,29.84,West,265,9.0,16.0,-999,-99.99,,,-99.99,,2013-04-12 23:32:00,
2013-04-12 19:42:00,74.0,-99.9,29.84,West,279,15.0,19.0,-999,-99.99,,,-99.99,,2013-04-12 23:42:00,
2013-04-12 19:52:00,74.0,-99.9,29.85,WSW,257,10.0,15.0,-999,-99.99,,,-99.99,,2013-04-12 23:52:00,
2013-04-12 20:02:00,74.0,-99.9,29.85,WSW,249,11.0,13.0,-999,-99.99,,,-99.99,,2013-04-13 00:02:00,
2013-04-12 20:12:00,74.0,-99.9,29.86,West,279,9.0,12.0,-999,-99.99,,,-99.99,,2013-04-13 00:12:00,
2013-04-12 20:22:00,74.0,-99.9,29.86,West,275,9.0,11.0,-999,-99.99,,,-99.99,,2013-04-13 00:22:00,
2013-04-12 20:32:00,74.0,-99.9,29.87,NNW,330,3.0,6.0,-999,-99.99,,,-99.99,,2013-04-13 00:32:00,
2013-04-12 20:42:00,74.0,-99.9,29.88,NW,312,4.0,8.0,-999,-99.99,,,-99.99,,2013-04-13 00:42:00,
2013-04-12 20:52:00,73.0,-99.9,29.88,NW,321,8.0,10.0,-999,-99.99,,,-99.99,,2013-04-13 00:52:00,
2013-04-12 21:02:00,73.0,-99.9,29.88,NNW,338,9.0,11.0,-999,-99.99,,,-99.99,,2013-04-13 01:02:00,
2013-04-12 21:13:00,73.0,-99.9,29.87,North,354,6.0,9.0,-999,-99.99,,,-99.99,,2013-04-13 01:13:00,
2013-04-12 21:23:00,73.0,-99.9,29.88,NNW,341,11.0,12.0,-999,-99.99,,,-99.99,,2013-04-13 01:23:00,
2013-04-12 21:33:00,72.0,-99.9,29.88,North,360,9.0,13.0,-999,-99.99,,,-99.99,,2013-04-13 01:33:00,
2013-04-12 21:43:00,72.0,-99.9,29.87,North,355,11.0,13.0,-999,-99.99,,,-99.99,,2013-04-13 01:43:00,
2013-04-12 21:52:00,72.0,-99.9,29.87,North,6,12.0,14.0,-999,-99.99,,,-99.99,,2013-04-13 01:52:00,
2013-04-12 22:02:00,72.0,-99.9,29.87,North,357,10.0,13.0,-999,-99.99,,,-99.99,,2013-04-13 02:02:00,
2013-04-12 22:12:00,72.0,-99.9,29.88,North,2,11.0,13.0,-999,-99.99,,,-99.99,,2013-04-13 02:12:00,
2013-04-12 22:23:00,72.0,-99.9,29.90,NE,43,7.0,11.0,-999,-99.99,,,-99.99,,2013-04-13 02:23:00,
2013-04-12 22:33:00,72.0,-99.9,29.90,North,2,8.0,9.0,-999,-99.99,,,-99.99,,2013-04-13 02:33:00,
2013-04-12 22:43:00,72.0,-99.9,29.91,NE,37,8.0,13.0,-999,-99.99,,,-99.99,,2013-04-13 02:43:00,
2013-04-12 22:53:00,72.0,-99.9,29.89,North,4,6.0,9.0,-999,-99.99,,,-99.99,,2013-04-13 02:53:00,
2013-04-12 23:03:00,72.0,-99.9,29.90,NNE,30,6.0,7.0,-999,-99.99,,,-99.99,,2013-04-13 03:03:00,
2013-04-12 23:12:00,72.0,-99.9,29.90,NNE,13,7.0,9.0,-999,-99.99,,,-99.99,,2013-04-13 03:12:00,
2013-04-12 23:23:00,72.0,-99.9,29.90,North,6,10.0,13.0,-999,-99.99,,,-99.99,,2013-04-13 03:23:00,
2013-04-12 23:33:00,72.0,-99.9,29.89,North,11,11.0,14.0,-999,-99.99,,,-99.99,,2013-04-13 03:33:00,
2013-04-12 23:43:00,72.0,-99.9,29.89,NNE,18,13.0,14.0,-999,-99.99,,,-99.99,,2013-04-13 03:43:00,
2013-04-12 23:54:00,72.0,-99.9,29.89,North,8,11.0,14.0,-999,-99.99,,,-99.99,,2013-04-13 03:54:00,